FW4383 Weather Reports


Display with metric or nautical units.
time (UTC)temp
F
wind
direction
speed
MPH
gust
MPH
rain 1hr
in
rain 24hr
in
rain mn
in
humidity
%
barometer
mb
20260502190034 63 341 3.0 6.0 0.00 0.00 0.00 70 1017.6
20260502184533 63 352 2.0 5.0 0.00 0.00 0.00 71 1017.7
20260502183034 64 343 3.0 6.0 0.00 0.00 0.00 71 1017.8
20260502161651 58 359 1.0 4.0 0.00 0.00 0.00 79 1018.1
20260502151530 56 199 0.0 3.0 0.00 0.00 0.00 83 1017.8
20260502140109 52 183 0.0 3.0 0.00 0.00 0.00 87 1017.1
20260502123036 54 359 0.0 3.0 0.00 0.00 0.00 82 1016.4
20260502121534 55 334 0.0 4.0 0.00 0.00 0.00 82 1016.5
20260502114642 56 77 1.0 4.0 0.00 0.00 0.00 79 1016.8
20260502113037 56 90 0.0 3.0 0.00 0.00 0.00 78 1016.4
20260502111533 57 123 1.0 4.0 0.00 0.00 0.00 78 1016.4
20260502110046 57 305 2.0 5.0 0.00 0.00 0.00 76 1016.6
20260502104536 58 238 1.0 4.0 0.00 0.00 0.00 73 1017.0
20260502103031 59 211 4.0 12.0 0.00 0.00 0.00 72 1017.1
20260502101535 58 230 3.0 8.0 0.00 0.00 0.00 73 1017.1
20260502071533 63 261 4.0 11.0 0.00 0.00 0.00 59 1017.0
20260502070036 64 258 6.0 13.0 0.00 0.00 0.00 59 1017.0
20260502064536 64 281 6.0 16.0 0.00 0.00 0.00 59 1017.2
20260502063126 64 250 4.0 9.0 0.00 0.00 0.00 59 1017.2
20260502061535 64 268 4.0 10.0 0.00 0.00 0.00 59 1017.0
20260502054535 65 276 3.0 9.0 0.00 0.00 0.00 58 1016.7
20260502053036 66 245 3.0 7.0 0.00 0.00 0.00 57 1016.9
20260502051533 66 252 3.0 8.0 0.00 0.00 0.00 57 1016.6
20260502043035 67 252 5.0 11.0 0.00 0.00 0.00 55 1016.2
20260502041536 67 267 6.0 15.0 0.00 0.00 0.00 56 1016.0
20260502040041 67 283 7.0 18.0 0.00 0.00 0.00 56 1015.9
20260502034532 68 275 8.0 18.0 0.00 0.00 0.00 54 1015.8
20260502033037 69 244 4.0 9.0 0.00 0.00 0.00 53 1015.9
20260502031536 68 220 4.0 12.0 0.00 0.00 0.00 53 1015.7
20260502030034 69 220 3.0 17.0 0.00 0.00 0.00 52 1015.3
20260502023036 70 276 8.0 22.0 0.00 0.00 0.00 51 1014.4
20260502020032 72 275 7.0 16.0 0.00 0.00 0.00 47 1014.3
20260502014533 74 275 6.0 15.0 0.00 0.00 0.00 44 1014.2
20260502013030 76 277 6.0 12.0 0.00 0.00 0.00 42 1014.2
20260502011529 78 301 6.0 11.0 0.00 0.00 0.00 39 1014.0
20260502010031 79 305 4.0 8.0 0.00 0.00 0.00 37 1014.0
20260502004536 80 294 4.0 8.0 0.00 0.00 0.00 36 1014.1
20260502003036 82 296 4.0 9.0 0.00 0.00 0.00 34 1014.2
20260502000036 80 320 4.0 7.0 0.00 0.00 0.00 36 1014.4
20260501234535 80 309 4.0 8.0 0.00 0.00 0.00 36 1014.5
20260501231530 83 325 4.0 8.0 0.00 0.00 0.00 30 1014.9
20260501230035 83 310 2.0 9.0 0.00 0.00 0.00 30 1015.3
20260501224534 83 332 3.0 9.0 0.00 0.00 0.00 30 1015.5
20260501223035 82 45 2.0 5.0 0.00 0.00 0.00 31 1015.7
20260501220037 81 341 3.0 12.0 0.00 0.00 0.00 32 1016.3
20260501214534 81 3 3.0 12.0 0.00 0.00 0.00 33 1016.4
20260501213030 80 11 2.0 9.0 0.00 0.00 0.00 33 1016.6
20260501211530 79 334 4.0 9.0 0.00 0.00 0.00 35 1016.7
20260501204609 78 318 3.0 7.0 0.00 0.00 0.00 38 1017.1
20260501201537 74 342 2.0 7.0 0.00 0.00 0.00 42 1017.8
20260501194535 73 316 3.0 6.0 0.00 0.00 0.00 43 1017.9